GW1210 Weather Reports


Display with metric or nautical units.
time (UTC)temp
F
wind
direction
speed
MPH
gust
MPH
rain 1hr
in
rain 24hr
in
rain mn
in
humidity
%
barometer
mb
20260503022432 52 7 3.0 5.0 0.00 0.01 0.01 53 1010.1
20260503021928 52 3 5.0 6.0 0.00 0.01 0.01 52 1010.1
20260503021424 53 357 5.0 7.0 0.00 0.01 0.01 52 1010.5
20260503020922 53 10 8.0 9.0 0.00 0.01 0.01 51 1010.5
20260503020420 53 356 2.0 3.0 0.00 0.01 0.01 51 1010.3
20260503015916 53 2 3.0 6.0 0.00 0.01 0.01 50 1010.6
20260503015413 53 13 3.0 3.0 0.00 0.01 0.01 50 1010.4
20260503014908 53 10 3.0 3.0 0.00 0.01 0.01 50 1010.0
20260503014406 53 359 2.0 2.0 0.00 0.01 0.01 51 1010.4
20260503013904 53 359 2.0 2.0 0.00 0.01 0.01 51 1010.1
20260503013401 53 338 3.0 3.0 0.00 0.01 0.01 51 1010.2
20260503012858 53 10 1.0 1.0 0.00 0.01 0.01 51 1010.1
20260503012355 53 22 3.0 3.0 0.00 0.01 0.01 51 1010.3
20260503011852 53 355 1.0 1.0 0.00 0.01 0.01 51 1010.1
20260503011349 53 347 3.0 3.0 0.00 0.01 0.01 52 1010.0
20260503010845 53 0 1.0 1.0 0.00 0.01 0.01 54 1010.0
20260503010342 53 352 1.0 1.0 0.00 0.01 0.01 55 1009.9
20260503005839 54 350 2.0 2.0 0.00 0.01 0.01 54 1009.9
20260503005337 54 0 2.0 2.0 0.00 0.01 0.01 54 1009.9
20260503004833 53 356 3.0 3.0 0.00 0.01 0.01 57 1009.8
20260503004330 53 351 1.0 1.0 0.00 0.01 0.01 59 1009.8
20260503003828 53 352 0.0 0.0 0.00 0.01 0.01 66 1009.7
20260503003325 53 352 0.0 0.0 0.00 0.01 0.01 65 1009.6
20260503002821 54 352 0.0 0.0 0.00 0.01 0.01 63 1009.5
20260503002319 54 344 0.0 0.0 0.00 0.01 0.01 61 1009.5
20260503001815 55 0 0.0 0.0 0.00 0.01 0.01 61 1009.5
20260503001311 55 358 0.0 0.0 0.00 0.01 0.01 60 1009.7
20260503000809 55 1 0.0 0.0 0.00 0.01 0.01 59 1009.5
20260503000306 56 0 1.0 1.0 0.00 0.01 0.01 58 1009.6
20260502235803 56 7 1.0 1.0 0.00 0.01 0.01 58 1009.5
20260502235300 56 24 2.0 2.0 0.00 0.01 0.01 57 1009.5
20260502234757 57 6 1.0 1.0 0.00 0.01 0.01 53 1009.6
20260502234254 57 1 1.0 2.0 0.00 0.01 0.01 50 1009.3
20260502233750 57 0 0.0 0.0 0.00 0.01 0.01 49 1009.5
20260502233247 57 350 1.0 1.0 0.00 0.01 0.01 48 1009.2
20260502232743 58 353 1.0 1.0 0.00 0.01 0.01 47 1009.4
20260502232240 58 359 0.0 0.0 0.00 0.01 0.01 47 1009.2
20260502231737 58 353 2.0 2.0 0.00 0.01 0.01 44 1009.3
20260502231234 60 357 2.0 3.0 0.00 0.01 0.01 44 1009.2
20260502230733 60 350 2.0 2.0 0.00 0.01 0.01 43 1009.1
20260502230231 60 314 4.0 6.0 0.00 0.01 0.01 42 1009.1
20260502225727 59 0 3.0 3.0 0.00 0.01 0.01 44 1009.0
20260502225224 60 0 0.0 2.0 0.00 0.01 0.01 44 1009.2
20260502224720 59 353 3.0 3.0 0.00 0.01 0.01 45 1009.0
20260502224217 59 352 5.0 6.0 0.00 0.01 0.01 45 1009.0
20260502223714 59 1 1.0 1.0 0.00 0.01 0.01 47 1009.2
20260502223213 59 25 3.0 5.0 0.00 0.01 0.01 48 1009.2
20260502222710 59 345 3.0 3.0 0.00 0.01 0.01 47 1009.1
20260502222206 58 310 5.0 7.0 0.00 0.01 0.01 48 1009.2
20260502221702 58 349 1.0 1.0 0.00 0.01 0.01 50 1009.1
20260502221159 58 344 2.0 2.0 0.00 0.01 0.01 49 1009.1
20260502220655 59 332 5.0 6.0 0.00 0.01 0.01 49 1009.1
20260502220152 59 349 3.0 5.0 0.00 0.01 0.01 49 1009.1
20260502215649 59 317 5.0 6.0 0.00 0.01 0.01 49 1009.2
20260502215146 58 356 5.0 6.0 0.00 0.01 0.01 49 1009.3
20260502214643 58 1 4.0 7.0 0.00 0.01 0.01 50 1009.2
20260502214140 58 5 4.0 6.0 0.00 0.01 0.01 51 1009.0
20260502213637 58 358 3.0 5.0 0.00 0.01 0.01 52 1009.0
20260502213134 58 330 5.0 6.0 0.00 0.01 0.01 53 1008.9
20260502212633 58 333 1.0 3.0 0.00 0.01 0.01 55 1008.9
20260502212131 58 19 4.0 5.0 0.00 0.01 0.01 55 1009.0
20260502211626 59 11 3.0 5.0 0.00 0.01 0.01 57 1008.9
20260502211124 58 348 2.0 3.0 0.00 0.01 0.01 57 1008.9
20260502210621 58 356 3.0 5.0 0.00 0.01 0.01 57 1009.0
20260502210118 58 8 4.0 7.0 0.00 0.01 0.01 58 1008.7
20260502205614 60 356 5.0 8.0 0.00 0.01 0.01 56 1008.7
20260502205112 59 6 0.0 1.0 0.00 0.01 0.01 56 1008.7
20260502204608 59 17 5.0 5.0 0.00 0.01 0.01 54 1008.5
20260502204106 59 5 4.0 5.0 0.00 0.01 0.01 49 1008.8
20260502203603 59 358 4.0 5.0 0.00 0.01 0.01 48 1008.9
20260502203100 60 320 2.0 2.0 0.00 0.01 0.01 48 1008.8
20260502202555 59 339 3.0 3.0 0.00 0.01 0.01 51 1008.8
20260502202054 59 0 3.0 3.0 0.00 0.01 0.01 51 1009.0
20260502201550 59 315 2.0 2.0 0.00 0.01 0.01 52 1009.1
20260502201047 59 345 2.0 2.0 0.00 0.01 0.01 52 1009.3
20260502200542 59 326 3.0 3.0 0.00 0.01 0.01 53 1009.4
20260502200040 58 323 3.0 3.0 0.00 0.01 0.01 55 1009.2
20260502195537 58 348 4.0 6.0 0.00 0.01 0.01 55 1009.2
20260502195033 60 343 3.0 5.0 0.00 0.01 0.01 55 1009.4
20260502194530 59 337 3.0 3.0 0.00 0.01 0.01 55 1009.3
20260502194026 60 341 3.0 3.0 0.00 0.01 0.01 54 1009.4
20260502193524 59 341 3.0 3.0 0.00 0.01 0.01 57 1009.7
20260502193020 61 273 7.0 8.0 0.00 0.01 0.01 55 1009.7
20260502192516 60 323 2.0 2.0 0.00 0.01 0.01 55 1009.7
20260502192014 58 339 5.0 7.0 0.00 0.01 0.01 59 1009.9
20260502191511 58 3 5.0 8.0 0.00 0.01 0.01 59 1009.9
20260502191009 59 327 2.0 3.0 0.00 0.01 0.01 59 1010.0
20260502190506 60 283 5.0 6.0 0.00 0.01 0.01 58 1010.1
20260502190002 58 335 2.0 3.0 0.00 0.01 0.01 60 1010.0
20260502185458 58 322 4.0 6.0 0.00 0.01 0.01 60 1010.0
20260502184955 59 318 5.0 6.0 0.00 0.01 0.01 59 1009.9
20260502184450 58 313 5.0 5.0 0.00 0.01 0.01 60 1010.2
20260502183947 59 304 6.0 8.0 0.00 0.01 0.01 60 1010.0
20260502183443 59 289 3.0 3.0 0.00 0.01 0.01 60 1010.2
20260502182938 59 323 7.0 8.0 0.00 0.01 0.01 60 1010.3
20260502182434 59 316 3.0 5.0 0.00 0.01 0.01 61 1010.3
20260502181930 59 304 1.0 2.0 0.00 0.01 0.01 62 1010.0
20260502181429 59 304 5.0 6.0 0.00 0.01 0.01 62 1010.3
20260502180927 59 314 4.0 5.0 0.00 0.01 0.01 63 1010.2
20260502180424 58 322 3.0 3.0 0.00 0.01 0.01 64 1010.4
20260502170342 57 348 2.0 2.0 0.00 0.01 0.01 69 1010.5
20260502164330 57 259 5.0 6.0 0.00 0.01 0.01 69 1010.9
20260502163826 57 334 2.0 2.0 0.00 0.01 0.01 69 1010.9
20260502163322 57 325 2.0 2.0 0.00 0.01 0.01 69 1010.8
20260502162820 56 333 0.0 1.0 0.00 0.01 0.01 71 1010.9
20260502162316 57 346 3.0 3.0 0.00 0.01 0.01 71 1010.9
20260502161814 57 358 1.0 2.0 0.00 0.01 0.01 70 1010.9
20260502161309 57 25 0.0 0.0 0.00 0.01 0.01 72 1011.0
20260502160807 57 19 2.0 5.0 0.00 0.01 0.01 71 1010.8
20260502160306 56 6 2.0 2.0 0.00 0.01 0.01 72 1011.0
20260502152235 55 311 2.0 3.0 0.00 0.01 0.01 74 1011.0
20260502151733 55 358 0.0 1.0 0.00 0.01 0.01 75 1011.4
20260502151230 54 349 0.0 1.0 0.00 0.01 0.01 77 1011.2
20260502150727 54 332 3.0 5.0 0.00 0.01 0.01 76 1011.3
20260502150224 54 7 2.0 3.0 0.00 0.01 0.01 76 1011.3
20260502130612 53 20 1.0 1.0 0.00 0.01 0.01 83 1011.4
20260502130110 53 26 0.0 0.0 0.00 0.01 0.01 84 1011.7
20260502123555 51 4 1.0 2.0 0.00 0.01 0.01 88 1011.2
20260502123052 51 32 5.0 6.0 0.00 0.01 0.01 88 1011.4
20260502122548 51 8 1.0 2.0 0.00 0.01 0.01 89 1011.2
20260502122046 51 358 1.0 1.0 0.00 0.01 0.01 90 1011.4
20260502121543 50 356 2.0 2.0 0.00 0.01 0.01 90 1011.4
20260502121041 50 3 1.0 2.0 0.00 0.01 0.01 90 1011.5
20260502120537 50 356 3.0 3.0 0.00 0.01 0.01 90 1011.4
20260502115532 50 353 1.0 2.0 0.00 0.01 0.01 91 1011.7
20260502115027 50 3 3.0 3.0 0.00 0.01 0.01 91 1011.5
20260502114524 51 354 1.0 1.0 0.00 0.01 0.01 92 1011.7
20260502114021 50 351 1.0 2.0 0.00 0.01 0.01 92 1011.4
20260502113519 50 340 2.0 2.0 0.00 0.01 0.01 93 1011.6
20260502113017 51 343 1.0 1.0 0.00 0.01 0.01 93 1011.5
20260502112515 50 352 0.0 0.0 0.00 0.01 0.01 92 1011.3
20260502112012 50 354 0.0 0.0 0.00 0.01 0.01 92 1011.3
20260502111509 50 3 1.0 1.0 0.00 0.01 0.01 92 1011.1
20260502111007 50 1 0.0 1.0 0.00 0.01 0.01 92 1010.8
20260502110504 50 355 0.0 0.0 0.00 0.01 0.01 92 1010.6
20260502110002 50 358 0.0 0.0 0.00 0.01 0.01 92 1010.8
20260502105459 50 352 0.0 0.0 0.00 0.01 0.01 92 1010.3
20260502104956 50 354 0.0 0.0 0.05 0.01 0.01 91 1010.5
20260502104453 50 351 0.0 0.0 0.05 0.01 0.01 90 1010.8
20260502103950 50 348 1.0 1.0 0.00 0.00 0.00 90 1011.0
20260502103448 50 340 1.0 1.0 0.00 0.00 0.00 89 1011.4
20260502102945 50 340 0.0 0.0 0.00 0.00 0.00 89 1011.1
20260502102442 50 326 2.0 2.0 0.00 0.00 0.00 88 1010.9
20260502101938 50 342 0.0 0.0 0.00 0.00 0.00 88 1011.0
20260502101437 50 334 0.0 0.0 0.00 0.00 0.00 88 1011.3
20260502100935 50 322 1.0 2.0 0.00 0.00 0.00 88 1011.2
20260502100434 50 336 0.0 0.0 0.00 0.00 0.00 87 1011.2
20260502091408 50 266 1.0 2.0 0.00 0.00 0.00 86 1010.9
20260502090905 50 209 3.0 3.0 0.00 0.00 0.00 86 1010.9
20260502090402 50 267 2.0 2.0 0.00 0.00 0.00 86 1010.9
20260502071257 51 298 1.0 2.0 0.00 0.00 0.00 83 1011.0
20260502070755 51 313 1.0 1.0 0.00 0.00 0.00 82 1011.0
20260502070252 51 256 2.0 2.0 0.00 0.00 0.00 83 1010.8
20260502065751 51 263 1.0 2.0 0.00 0.00 0.00 82 1010.8
20260502065248 51 268 2.0 2.0 0.00 0.00 0.00 82 1011.0
20260502064747 51 303 1.0 2.0 0.00 0.00 0.00 82 1011.2
20260502064244 51 298 1.0 2.0 0.00 0.00 0.00 82 1011.1
20260502063741 51 329 0.0 0.0 0.00 0.00 0.00 82 1011.1
20260502063239 50 239 3.0 5.0 0.00 0.00 0.00 81 1011.1
20260502062736 50 307 2.0 3.0 0.00 0.00 0.00 81 1011.1
20260502062234 50 332 0.0 0.0 0.00 0.00 0.00 81 1011.1
20260502061732 50 246 1.0 2.0 0.00 0.00 0.00 80 1011.0
20260502061229 51 218 4.0 5.0 0.00 0.00 0.00 80 1011.2
20260502060724 51 303 2.0 3.0 0.00 0.00 0.00 80 1011.3
20260502060220 51 327 1.0 1.0 0.00 0.00 0.00 79 1011.3
20260502055718 51 321 0.0 0.0 0.00 0.00 0.00 78 1011.4
20260502055216 51 318 1.0 2.0 0.00 0.00 0.00 78 1011.6
20260502054715 51 323 1.0 1.0 0.00 0.00 0.00 78 1011.4
20260502054212 51 227 2.0 5.0 0.00 0.00 0.00 77 1011.1
20260502053710 51 283 1.0 2.0 0.00 0.00 0.00 77 1011.0
20260502053206 51 325 0.0 1.0 0.00 0.00 0.00 77 1011.3
20260502052705 51 306 2.0 2.0 0.00 0.00 0.00 77 1011.2
20260502052203 51 330 1.0 2.0 0.00 0.00 0.00 76 1011.1
20260502051700 51 139 3.0 3.0 0.00 0.00 0.00 76 1011.2
20260502051159 51 269 2.0 2.0 0.00 0.00 0.00 76 1011.2
20260502050655 51 337 0.0 0.0 0.00 0.00 0.00 75 1011.0
20260502050151 51 332 0.0 0.0 0.00 0.00 0.00 75 1011.2
20260502045648 51 274 2.0 3.0 0.00 0.00 0.00 75 1011.3
20260502045145 52 331 0.0 0.0 0.00 0.00 0.00 75 1011.1
20260502044642 52 332 0.0 0.0 0.00 0.00 0.00 75 1011.3
20260502044138 52 298 1.0 2.0 0.00 0.00 0.00 74 1011.2
20260502043636 52 306 2.0 2.0 0.00 0.00 0.00 74 1011.3
20260502043133 52 235 2.0 5.0 0.00 0.00 0.00 75 1011.4
20260502042632 52 297 2.0 2.0 0.00 0.00 0.00 75 1011.5
20260502042129 52 290 2.0 2.0 0.00 0.00 0.00 76 1011.6
20260502041627 51 317 1.0 2.0 0.00 0.00 0.00 77 1011.6
20260502041124 51 300 2.0 2.0 0.00 0.00 0.00 78 1011.5
20260502040621 51 328 0.0 1.0 0.00 0.00 0.00 80 1011.6
20260502040118 51 330 2.0 2.0 0.00 0.00 0.00 81 1011.6
20260502035614 51 335 2.0 2.0 0.00 0.00 0.00 82 1011.5
20260502035111 51 237 4.0 5.0 0.00 0.00 0.00 82 1011.4
20260502034609 51 336 1.0 2.0 0.00 0.00 0.00 83 1011.4
20260502034107 51 272 1.0 2.0 0.00 0.00 0.00 83 1011.2
20260502033605 51 335 0.0 0.0 0.00 0.00 0.00 83 1011.2
20260502033103 51 333 0.0 0.0 0.00 0.00 0.00 84 1011.3
20260502032558 50 336 0.0 0.0 0.00 0.00 0.00 84 1011.4
20260502032055 50 324 1.0 2.0 0.00 0.00 0.00 85 1011.3
20260502031553 50 327 0.0 0.0 0.00 0.00 0.00 85 1011.5
20260502031050 50 330 1.0 2.0 0.00 0.00 0.00 85 1011.5
20260502030549 50 326 1.0 1.0 0.00 0.00 0.00 85 1011.8
20260502030047 50 322 1.0 1.0 0.00 0.00 0.00 85 1011.6
20260502025544 50 307 2.0 2.0 0.00 0.00 0.00 85 1011.8
20260502025042 50 310 2.0 2.0 0.00 0.00 0.00 85 1011.8
20260502024539 50 287 2.0 2.0 0.00 0.00 0.00 85 1012.0
20260502024037 50 214 1.0 2.0 0.00 0.00 0.00 85 1011.9
20260502023534 50 176 1.0 2.0 0.00 0.00 0.00 85 1011.9
20260502023032 50 113 0.0 1.0 0.00 0.00 0.00 85 1011.9